RH
84 84 85 86 87 87 86 83 81 79 80 82 82 81 79 78 77 78 79 80 77 75 72 70 68 66 66 67 68 68 66 64 64 64 63 62 61 60 60 59 60 60 61 63 64 66 67 67 66 66 66 66 67 67 67 67 68 68 69 69 68 68 67 66 67 68 70 71 74
84 84 86 88 89 89 87 85 81 79 78 79 80 81 80 79 79 79 79 78 75 73 71 69 66 64 64 65 66 66 66 65 65 65 65 64 63 63 63 63 63 64 64 64 64 65 65 66 66 66 67 68 68 68 68 68 69 69 69 69 69 68 68 70 72 73 76 78 80
83 85 87 89 90 89 86 83 80 77 76 77 78 79 80 80 80 79 78 75 74 73 70 67 63 61 62 64 65 66 66 67 67 67 67 67 66 66 66 67 68 68 68 67 66 65 65 66 66 67 68 69 69 69 69 69 69 70 70 70 69 70 73 76 79 80 82 83 84
83 85 87 88 88 87 84 80 78 76 75 76 77 78 78 78 78 76 74 71 71 70 68 63 60 60 61 64 66 67 68 68 68 68 69 69 68 68 69 70 71 71 70 68 67 66 66 67 67 68 69 69 69 69 69 69 69 70 70 70 72 74 78 81 83 84 85 86 87
85 86 87 88 88 86 83 79 77 76 76 76 76 76 76 75 74 71 69 66 65 65 65 63 61 61 63 66 66 67 68 69 69 69 69 70 70 71 72 72 71 71 70 69 68 67 67 67 68 68 68 68 68 67 67 68 69 70 71 73 75 78 81 84 84 85 86 88 89
86 88 90 90 89 88 85 80 78 76 76 76 76 76 75 73 71 69 66 63 62 62 63 64 64 64 66 68 68 69 69 70 72 72 72 71 72 72 72 72 71 70 69 68 67 67 67 67 68 68 67 67 66 66 66 68 70 72 74 77 79 81 83 84 84 85 87 89 90
89 91 92 92 92 90 88 83 79 77 77 78 79 79 77 75 74 72 69 66 64 63 64 66 68 69 71 72 73 73 72 71 72 72 73 72 72 72 71 71 70 69 68 67 67 67 67 67 67 67 66 66 65 66 67 70 72 75 78 80 82 83 83 84 84 85 87 89 89
90 91 93 93 92 91 89 85 80 79 81 85 85 84 82 80 79 77 75 73 71 69 68 68 70 72 74 77 78 79 77 74 72 72 71 71 71 71 70 70 69 69 68 68 67 67 67 67 66 66 66 66 67 68 70 72 75 77 80 82 82 83 83 84 84 86 87 88 88
91 91 92 93 91 90 88 85 83 84 87 91 91 89 87 85 83 82 80 79 79 77 75 74 73 74 75 77 80 81 81 78 75 72 70 70 70 70 69 69 68 68 68 67 67 67 66 66 67 69 70 70 71 72 74 75 77 79 80 81 82 82 82 83 84 86 87 88 88
92 92 91 92 91 89 87 86 87 90 92 94 93 92 90 87 85 85 84 83 83 82 80 79 78 76 75 75 77 78 79 79 76 73 71 70 70 69 69 68 68 68 67 67 67 66 67 68 71 72 73 74 75 77 78 78 79 80 81 81 81 81 82 83 84 85 87 88 89
93 93 92 91 91 89 88 89 91 93 94 94 93 92 91 89 87 87 87 87 87 86 84 82 81 80 78 76 76 76 76 76 75 72 71 70 70 70 69 68 68 68 67 67 67 68 69 71 73 74 75 76 78 80 81 81 81 82 81 81 81 82 82 83 83 84 85 87 88
92 93 92 91 91 90 90 91 93 94 94 93 93 93 91 89 87 87 89 91 92 90 88 85 83 82 80 79 78 77 77 76 74 72 70 70 69 69 69 69 69 69 69 69 70 71 72 74 74 75 76 77 79 81 83 83 83 83 82 82 82 82 82 83 83 83 84 86 89
92 92 92 91 90 90 90 92 93 94 94 93 93 93 92 90 87 87 89 92 94 94 92 90 87 84 83 83 81 80 80 79 76 74 73 72 72 72 72 72 72 72 73 75 75 75 74 74 74 75 76 79 81 82 83 83 83 83 83 82 82 82 82 82 82 83 84 87 91
91 92 91 90 89 89 89 90 92 93 93 93 94 93 93 91 88 87 89 92 93 94 94 93 91 88 86 85 84 83 83 83 82 81 80 79 78 78 78 77 77 78 79 80 79 77 76 74 74 75 77 80 82 83 83 83 83 83 84 84 84 83 82 81 82 83 86 90 92
91 92 92 91 90 89 88 89 92 93 93 93 93 94 93 93 91 90 91 92 93 94 94 93 93 91 89 88 87 86 87 87 88 88 87 85 84 83 83 83 83 84 86 86 84 82 80 79 78 78 79 81 82 83 83 83 84 84 84 85 84 83 82 82 83 85 88 91 92
91 92 93 93 92 91 89 89 91 92 93 93 93 94 94 94 93 93 93 93 93 93 93 93 92 92 92 91 91 91 90 91 91 90 90 90 89 88 88 88 89 89 90 89 88 87 86 85 84 83 83 83 84 84 84 85 85 85 84 84 83 83 83 83 84 86 88 90 91
92 93 93 93 93 92 91 90 92 92 93 93 93 93 93 93 93 93 92 92 92 91 91 91 92 92 92 92 92 92 93 92 92 92 92 92 92 91 92 92 92 92 92 91 91 90 89 89 88 87 87 86 86 86 86 86 85 85 84 84 83 83 83 83 84 85 86 87 88
93 93 94 93 93 92 92 91 92 93 93 93 93 93 93 93 93 93 92 91 90 90 90 90 91 92 92 93 93 93 93 94 94 94 93 93 93 93 93 93 93 93 93 93 92 92 92 91 90 89 89 88 88 88 88 87 86 86 84 84 83 83 83 83 83 83 84 85 87
94 94 94 94 93 93 93 93 93 93 93 93 93 93 93 93 93 93 92 91 90 90 90 90 91 92 93 93 93 93 93 94 94 94 94 94 93 93 93 93 93 93 93 93 93 93 93 93 92 92 92 91 91 90 89 89 89 88 85 83 83 83 83 83 84 85 86 87 88
94 94 94 94 94 94 93 93 93 93 92 92 93 93 94 93 93 93 92 91 90 91 91 92 92 93 93 93 93 93 93 93 94 94 94 94 94 94 94 93 93 93 93 93 93 93 93 93 93 93 93 93 92 92 91 91 90 89 87 84 83 84 85 86 87 88 88 88 89
94 94 94 94 94 94 93 93 93 92 92 92 92 93 93 94 93 93 92 91 91 91 92 92 93 93 93 93 93 93 92 92 93 93 94 94 94 94 93 93 92 92 92 92 92 92 92 91 92 92 92 92 92 92 91 91 90 89 87 86 85 87 88 89 89 89 89 89 90
94 94 94 94 94 94 94 93 93 93 92 92 92 92 92 93 93 93 92 91 90 90 91 91 91 91 91 92 92 92 92 92 92 93 93 94 93 93 93 92 92 92 91 91 90 90 89 89 89 89 89 90 90 90 90 90 89 88 88 87 87 88 89 90 90 91 92 92 92
93 93 93 93 94 94 94 94 94 93 93 93 92 92 92 93 92 92 91 90 90 89 89 89 89 90 90 90 91 92 92 92 92 92 92 92 92 92 92 92 92 91 91 91 90 89 88 88 88 88 88 88 88 88 88 88 89 89 88 88 88 88 88 89 91 93 93 93 93
92 92 91 92 92 93 93 93 93 94 93 93 93 93 93 92 92 91 90 89 88 88 88 87 88 88 89 90 90 91 91 91 92 92 92 91 91 90 90 90 90 90 90 90 89 89 89 89 89 89 89 89 89 89 89 89 89 89 89 88 88 87 87 89 92 93 92 92 92
90 90 90 90 90 90 91 91 92 92 93 93 92 92 91 91 91 90 89 89 88 88 88 88 88 89 90 90 90 90 90 91 91 90 90 90 90 89 88 88 88 88 88 88 88 89 90 91 92 92 92 92 92 92 92 92 91 90 90 89 88 87 88 90 91 92 91 91 90
88 88 88 88 88 88 88 89 90 90 90 90 90 90 90 90 90 91 91 91 90 90 91 92 92 91 91 91 91 91 91 91 90 90 90 89 89 88 88 87 87 87 87 88 89 91 92 92 93 93 93 93 93 92 92 92 92 92 91 90 88 88 89 91 91 90 89 88 88
85 86 87 87 87 87 88 88 88 89 89 88 88 88 89 90 91 92 92 92 92 93 93 93 93 93 93 93 92 92 92 92 91 90 90 90 89 88 87 87 88 88 89 90 91 92 92 92 92 92 92 92 92 92 92 92 92 91 90 89 89 89 90 90 89 88 87 87 86
82 83 85 86 87 87 88 88 89 89 89 89 89 88 89 90 91 92 92 92 92 92 93 93 93 93 93 93 93 93 93 92 92 92 93 93 92 91 91 90 90 91 91 91 91 91 91 91 90 90 90 90 90 90 91 91 90 90 89 88 88 88 89 88 87 87 86 85 84
83 83 83 84 86 87 88 88 89 89 90 90 90 90 89 90 91 91 91 90 90 91 91 92 93 93 93 93 93 93 93 91 92 93 93 93 93 93 93 93 93 93 92 92 91 91 90 89 89 88 88 88 88 88 88 87 87 87 87 87 87 87 86 86 85 85 85 83 81
87 86 86 85 86 87 87 88 88 89 89 90 90 90 90 89 89 89 89 89 88 88 88 89 91 92 92 92 93 93 93 93 93 93 93 93 92 92 92 92 92 93 93 92 92 91 90 88 88 87 86 86 85 85 85 85 85 85 85 85 85 85 85 84 84 84 84 83 82
89 88 88 88 88 88 88 88 89 89 89 89 90 90 89 88 88 88 88 88 88 87 86 85 86 87 88 90 92 93 93 93 93 93 93 92 91 90 89 89 90 91 92 91 90 89 88 86 85 84 84 84 84 84 84 84 84 84 84 84 84 84 84 84 84 84 84 83 84
91 90 89 89 89 89 89 89 89 89 89 88 88 89 89 89 89 90 90 91 90 90 89 88 86 84 84 86 90 92 93 93 93 93 92 91 90 88 87 87 88 89 89 89 87 86 85 84 83 83 83 83 83 83 83 82 82 82 81 81 81 81 81 82 82 83 83 84 85
93 93 92 92 92 92 92 91 90 90 89 87 86 86 87 88 90 91 91 91 92 92 92 92 91 88 86 86 89 92 93 93 92 92 91 90 88 86 85 86 87 88 87 86 85 84 84 84 83 83 83 83 82 81 81 80 79 78 78 77 77 77 78 78 79 80 81 82 84
93 93 93 93 93 93 93 93 92 92 91 89 87 85 84 84 86 88 88 87 88 90 91 92 92 92 91 90 91 91 92 91 91 91 90 89 87 85 85 86 87 87 86 85 84 85 85 84 84 83 82 81 80 79 77 76 75 74 74 73 74 74 74 74 75 76 77 78 80
93 93 93 93 93 93 93 93 92 92 92 91 90 87 84 83 83 82 82 81 83 86 89 91 91 91 91 91 90 89 88 88 89 89 89 88 87 86 86 87 86 86 86 85 86 86 85 84 83 81 80 78 76 75 73 72 71 71 71 72 73 73 73 73 74 74 75 75 76
91 91 92 92 91 91 90 90 90 91 92 91 91 89 87 86 84 82 80 78 79 81 84 87 88 89 88 87 86 84 83 82 85 87 88 88 88 87 87 87 87 87 87 87 86 85 84 82 80 78 76 74 73 72 72 71 71 71 71 72 73 73 74 74 75 75 75 75 75
84 86 87 88 87 86 86 86 87 89 90 90 90 89 88 88 88 86 84 80 79 79 80 83 84 85 85 84 82 80 79 80 83 86 88 88 88 88 88 88 88 87 87 86 84 82 80 79 77 75 74 73 73 72 72 71 71 72 72 73 74 74 75 76 76 76 76 77 77
77 78 80 81 81 81 81 82 84 86 88 89 89 89 89 89 89 89 88 86 84 82 81 82 83 83 84 83 82 82 82 83 85 87 88 88 88 88 88 88 87 86 84 82 80 78 77 76 75 74 74 74 73 73 73 73 73 73 74 74 75 75 76 76 77 78 78 78 78
72 73 74 75 76 77 78 79 81 84 86 88 88 88 88 89 90 90 91 90 89 88 87 85 85 85 85 85 86 86 85 86 86 87 87 87 87 87 86 86 84 83 80 78 77 76 75 75 75 75 75 75 75 75 75 75 75 75 76 76 76 77 77 77 77 77 77 76 75
69 69 70 71 72 73 74 75 77 79 82 84 85 85 86 87 89 90 90 90 91 90 90 89 88 88 87 88 88 88 88 87 86 86 85 85 85 84 84 83 81 79 77 76 76 75 75 75 76 76 76 76 76 76 77 77 77 77 77 77 77 77 77 76 76 75 73 72 71
67 67 67 67 68 68 69 70 71 73 75 78 79 80 82 83 85 86 87 88 89 89 90 90 89 89 89 90 90 90 89 89 88 86 84 83 83 82 81 80 78 77 77 76 76 76 77 77 77 78 78 78 78 78 78 78 78 78 78 78 77 76 76 74 73 71 70 69 69